Weather History for Montreal Mirabel, QC

Change the Weather History Date:

Thursday, August 8, 2013

  Actual Average Record
Temperature  
Mean Temperature 72 °F -  
Max Temperature 78 °F 76 °F 95 °F (2001)
Min Temperature 66 °F 57 °F 51 °F (2004)
Cooling Degree Days 7    
Growing Degree Days 22 (Base 50)    
Moisture  
Dew Point 66 °F    
Average Humidity 84    
Maximum Humidity 100    
Minimum Humidity 65    
Precipitation  
Precipitation 0.00 in - - ()
Sea Level Pressure  
Sea Level Pressure 29.94 in    
Wind  
Wind Speed 5 mph ()    
Max Wind Speed 13 mph    
Max Gust Speed -    
Visibility 12.4 miles    
Events Rain , Thunderstorm    
Averages and records for this station are not official NWS values.
T = Trace of Precipitation, MM = Missing Value Source: Averaged Metar Reports

Daily Weather History Graph

Daily Weather History Graph

Search for Another Location

Airport:

Trip Planner

Search our weather history database for the weather conditions in past years. The results will help you decide how hot, cold, wet, or windy it might be!

Date:

Astronomy

Aug. 08, 2013 Rise Set
Actual Time 5:48 AM EDT 8:14 PM EDT
Civil Twilight 5:14 AM EDT 8:47 PM EDT
Nautical Twilight 4:33 AM EDT 9:29 PM EDT
Astronomical Twilight 3:45 AM EDT 10:16 PM EDT
Moon 7:41 AM EDT (8/8) 8:41 PM EDT (8/8)
Length of Visible Light 15h 32m
Length of Day
14h 26m
Waxing Crescent, 3% of the Moon is Illuminated
Aug 8
Waxing Crescent
Aug 14
First Quarter
Aug 20
Full
Aug 28
Last Quarter
Sep 5
New

Hourly Weather History & Observations

Time (EDT) Temp. Dew Point Humidity Pressure Visibility Wind Dir Wind Speed Gust Speed Precip Events Conditions
12:00 AM 68.0 °F 64.4 °F 88% 29.92 in 25.0 mi SSE 8.1 mph - N/A   Mostly Cloudy
1:00 AM 68.0 °F 64.4 °F 88% 29.90 in 25.0 mi South 9.2 mph - N/A   Mostly Cloudy
1:19 AM 68.0 °F 64.4 °F 88% 29.89 in 25.0 mi SSE 6.9 mph - N/A Rain , Thunderstorm Light Thunderstorms and Rain
2:00 AM 66.2 °F 64.4 °F 94% 29.91 in 15.0 mi NNW 12.7 mph - N/A Rain , Thunderstorm Light Thunderstorms and Rain
2:35 AM 66.2 °F 64.4 °F 94% 29.91 in 20.0 mi Calm Calm - N/A Rain Light Rain Showers
3:00 AM 66.2 °F 66.2 °F 100% 29.91 in 20.0 mi Calm Calm - N/A Rain Light Rain Showers
4:00 AM 66.2 °F 64.4 °F 94% 29.89 in 25.0 mi Calm Calm - N/A   Overcast
5:00 AM 66.2 °F 64.4 °F 94% 29.89 in 20.0 mi SSW 2.3 mph - N/A   Overcast
6:00 AM 66.2 °F 66.2 °F 100% 29.91 in 15.0 mi SW 5.8 mph - N/A   Overcast
7:00 AM 68.0 °F 66.2 °F 94% 29.93 in 8.0 mi SW 3.5 mph - N/A   Scattered Clouds
7:50 AM 68.0 °F 66.2 °F 94% 29.94 in 6.0 mi SW 6.9 mph - N/A   Mostly Cloudy
8:00 AM 68.0 °F 66.2 °F 94% 29.94 in 6.0 mi SW 6.9 mph - N/A   Mostly Cloudy
8:23 AM 69.8 °F 66.2 °F 88% 29.94 in 6.0 mi SW 6.9 mph - N/A   Mostly Cloudy
9:00 AM 69.8 °F 66.2 °F 88% 29.96 in 8.0 mi WSW 6.9 mph - N/A   Mostly Cloudy
9:28 AM 71.6 °F 64.4 °F 78% 29.97 in 25.0 mi WSW 9.2 mph - N/A   Mostly Cloudy
10:00 AM 71.6 °F 66.2 °F 83% 29.97 in 25.0 mi West 6.9 mph - N/A   Mostly Cloudy
11:00 AM 73.4 °F 66.2 °F 78% 29.96 in 25.0 mi WSW 5.8 mph - N/A   Scattered Clouds
12:00 PM 75.2 °F 66.2 °F 73% 29.96 in 25.0 mi WSW 6.9 mph - N/A   Scattered Clouds
1:00 PM 77.0 °F 68.0 °F 74% 29.96 in 25.0 mi SW 6.9 mph - N/A   Scattered Clouds
2:00 PM 78.8 °F 66.2 °F 65% 29.96 in 45.0 mi SSW 11.5 mph - N/A   Scattered Clouds
3:00 PM 78.8 °F 66.2 °F 65% 29.96 in 45.0 mi WSW 6.9 mph - N/A   Scattered Clouds
4:00 PM 78.8 °F 66.2 °F 65% 29.96 in 45.0 mi West 6.9 mph - N/A   Mostly Cloudy
5:00 PM 78.8 °F 66.2 °F 65% 29.95 in 45.0 mi WSW 3.5 mph - N/A   Mostly Cloudy
6:00 PM 78.8 °F 66.2 °F 65% 29.95 in 45.0 mi WSW 3.5 mph - N/A   Mostly Cloudy
7:00 PM 75.2 °F 64.4 °F 69% 29.96 in 45.0 mi SW 4.6 mph - N/A   Mostly Cloudy
8:00 PM 69.8 °F 66.2 °F 88% 29.95 in 25.0 mi South 2.3 mph - N/A   Mostly Cloudy
9:00 PM 68.0 °F 64.4 °F 88% 29.96 in 25.0 mi West 3.5 mph - N/A   Mostly Cloudy
10:00 PM 68.0 °F 64.4 °F 88% 29.97 in 25.0 mi Calm Calm - N/A   Mostly Cloudy
11:00 PM 66.2 °F 64.4 °F 94% 29.96 in 25.0 mi WNW 2.3 mph - N/A   Mostly Cloudy